Presure
135 134 139 177 155 135 133 157 132 138 161 134 141 153 155 167 150 158 152 162 127 172 199 195 178 180 192 189 191 188 179 177 180 172 189 184 170 183 167 169 171 179 176 173 175
151 146 120 160 144 133 150 138 126 133 142 142 154 150 145 154 149 174 162 160 166 177 196 194 174 191 193 168 190 182 171 176 145 169 175 183 180 140 177 175 178 178 172 179 165
157 143 146 127 148 158 149 126 134 132 129 162 142 162 153 146 164 167 153 164 168 165 192 186 175 190 192 181 185 180 179 173 122 165 183 176 179 169 177 139 180 169 167 164 160
139 136 156 153 134 157 137 130 134 138 144 149 156 147 146 190 145 171 164 167 164 164 190 178 172 188 186 182 182 113 161 167 125 159 163 160 174 172 173 153 171 173 170 155 166
159 160 150 150 127 162 151 158 141 135 167 144 141 149 156 185 172 162 164 162 162 197 183 174 177 185 183 186 191 113 91 125 169 161 163 177 154 160 181 179 165 153 170 152 167
168 165 145 153 146 144 152 130 135 153 142 154 152 145 142 146 175 162 159 156 174 193 182 183 181 182 184 185 100 165 139 112 166 140 152 170 188 180 150 173 168 162 162 166 151
95 156 168 95 156 94 109 148 152 171 139 167 157 149 150 159 169 156 165 180 178 185 180 184 166 180 177 189 191 170 166 134 120 88 148 162 162 148 154 159 170 158 157 170 164
170 145 171 158 150 162 171 150 158 150 159 151 159 148 154 145 169 171 164 163 196 165 178 172 167 180 176 188 191 92 165 155 152 158 163 152 146 144 146 165 162 162 157 151 143
167 165 157 174 166 162 171 139 156 147 159 150 152 159 146 160 171 161 169 191 186 180 171 179 162 180 130 85 115 168 93 156 158 148 157 149 151 154 147 165 157 142 138 149 149
150 146 173 137 168 150 142 149 144 149 168 176 166 149 170 165 151 168 177 196 181 175 170 175 159 181 163 171 176 163 158 165 157 162 159 158 147 148 139 164 155 149 143 154 150
158 167 154 159 157 160 166 143 149 155 158 162 153 164 177 153 164 155 170 196 180 174 168 180 158 172 184 154 188 164 167 166 163 155 158 150 150 144 132 141 143 140 146 141 146
158 146 148 144 148 144 157 145 141 160 120 147 161 177 169 153 167 165 169 192 179 173 166 182 158 171 165 147 159 160 172 145 141 141 144 151 133 128 137 149 143 154 155 154 148
143 159 148 149 154 157 155 159 176 166 182 158 169 164 165 170 161 171 184 187 175 171 163 171 158 152 165 159 158 152 153 148 139 151 149 134 136 135 158 116 144 165 163 158 152
169 159 158 161 159 144 152 161 123 163 172 173 176 173 170 164 167 165 184 182 170 169 160 174 160 152 163 157 164 162 154 156 142 143 147 141 155 153 150 153 156 161 170 149 167
158 165 165 150 175 174 153 164 184 169 167 172 172 175 167 156 168 174 183 182 168 168 159 166 162 153 156 155 151 151 167 161 152 160 154 155 157 153 151 158 156 169 170 162 163
187 177 184 191 187 161 170 192 170 171 172 173 166 164 171 164 182 189 177 175 169 166 165 157 159 158 156 148 151 156 147 156 150 146 151 156 146 153 155 155 164 172 161 161 185
180 183 163 205 166 184 170 176 158 160 168 163 160 165 155 169 197 201 178 173 173 165 166 162 160 159 164 155 152 151 146 153 152 151 155 152 152 155 162 157 175 164 162 161 147
190 208 170 166 194 172 159 139 162 183 166 174 169 171 172 161 187 196 181 173 170 166 165 160 161 169 155 153 159 156 154 164 153 150 150 155 155 159 154 162 170 170 168 128 157
160 172 167 174 168 179 156 166 186 157 93 179 159 167 167 154 170 186 187 183 174 168 164 165 160 155 154 149 153 149 161 155 159 158 148 160 157 152 161 166 162 164 158 166 158
175 171 166 177 170 161 171 167 164 173 175 169 178 175 176 173 156 148 178 185 188 171 167 165 159 159 158 158 157 161 149 156 154 149 155 156 158 166 181 148 154 159 117 167 140
173 177 187 173 163 159 165 170 180 175 168 172 180 163 166 172 162 161 182 182 187 176 180 185 183 170 158 156 157 158 155 153 154 158 157 162 155 180 149 154 150 162 156 149 153
172 179 171 170 183 176 143 190 181 157 173 173 175 165 174 161 163 166 167 151 177 179 181 176 165 161 172 165 163 162 162 165 162 160 160 168 150 160 133 142 152 144 162 161 164
188 168 182 185 164 174 181 152 171 170 158 169 172 161 155 171 164 168 166 168 172 175 173 166 169 174 173 171 168 165 166 160 155 147 152 149 160 164 162 131 153 121 159 156 160
177 177 186 173 153 160 182 160 170 164 174 181 156 171 178 177 140 153 170 174 148 145 160 173 170 163 166 165 163 162 163 160 151 162 167 159 167 160 100 108 164 160 151 165 157
197 179 167 161 175 182 176 161 156 150 167 190 155 175 171 170 175 159 165 176 179 161 149 159 169 167 158 145 160 166 165 166 165 169 151 145 161 163 159 158 165 157 156 170 172
184 189 191 178 154 166 159 160 179 182 177 170 187 156 152 171 171 173 167 175 160 169 170 164 159 160 171 175 177 169 164 166 162 142 148 173 168 162 170 170 167 157 152 139 143
195 174 184 189 184 177 190 176 188 169 177 159 183 194 189 182 180 181 179 168 170 177 176 179 179 164 161 174 166 159 131 93 83 167 150 162 166 149 159 169 163 159 162 160 164
Wind_Speed
41 39 39 55 39 40 41 29 35 39 41 39 39 42 46 55 44 49 43 51 39 58 43 39 38 36 36 33 31 28 28 28 27 27 20 19 28 20 26 27 29 28 29 31 33
42 42 34 43 35 41 30 38 34 39 34 43 42 43 45 47 45 53 49 53 57 59 41 38 37 37 35 33 31 28 29 29 33 29 27 23 25 34 27 29 31 31 33 31 38
46 39 36 38 33 38 34 35 44 37 32 48 40 50 47 48 55 51 48 52 56 53 40 39 37 36 34 31 30 29 29 31 28 32 28 30 30 33 30 39 30 34 36 37 42
46 42 38 29 42 29 37 45 43 44 42 41 47 44 44 56 46 49 51 54 54 53 40 40 37 35 34 32 30 26 30 32 29 34 34 35 31 33 33 37 34 31 35 44 41
41 40 37 50 44 41 32 34 43 41 50 42 37 44 49 60 48 48 49 52 54 40 40 41 35 33 33 32 27 38 25 29 31 33 35 32 39 39 30 32 39 42 37 46 40
55 62 36 32 41 35 40 43 44 44 40 48 45 40 41 45 51 49 49 50 58 39 39 37 33 31 32 30 27 29 30 35 31 44 40 35 28 31 43 34 39 43 43 43 48
19 51 55 21 38 20 27 33 39 56 40 56 46 41 48 57 52 50 53 52 50 39 39 35 35 31 31 30 26 29 32 47 45 37 42 39 37 45 44 43 41 45 46 44 46
63 39 61 39 34 48 58 35 44 41 50 44 52 41 51 42 54 51 51 53 34 37 37 36 35 31 32 30 25 33 34 39 40 38 35 42 49 49 49 41 43 45 48 51 55
66 56 37 67 56 44 56 44 42 41 52 43 48 51 41 58 52 51 54 47 36 37 38 36 36 31 26 23 30 30 37 38 37 45 41 45 46 48 52 42 48 58 63 58 59
42 42 68 47 56 36 45 40 38 42 53 53 49 45 53 51 47 53 52 38 37 37 39 37 37 31 32 30 26 33 38 34 37 36 38 40 48 50 58 41 45 52 59 51 56
41 57 34 43 41 46 51 41 39 49 49 50 48 59 50 51 53 51 52 36 38 37 39 37 38 32 32 37 30 33 32 32 34 39 38 42 44 48 58 54 52 56 52 61 61
44 47 38 47 41 44 48 40 39 51 39 46 54 50 52 52 52 54 51 36 39 37 39 35 37 33 33 36 35 34 31 41 45 46 45 43 53 59 55 47 52 48 50 52 60
42 54 44 42 47 50 48 52 56 57 50 56 56 53 54 53 53 53 47 37 39 36 39 36 38 39 35 38 39 40 38 40 46 42 43 50 51 53 46 39 47 50 48 50 57
66 56 57 59 55 42 46 55 38 53 56 56 52 53 52 52 52 51 42 37 40 38 40 35 37 41 38 40 39 40 42 41 46 46 47 49 49 49 50 51 52 55 59 46 56
54 62 62 45 66 61 48 55 50 54 53 54 54 53 52 51 51 49 43 37 39 39 42 39 37 44 44 44 45 45 42 43 46 47 49 53 55 57 57 59 60 66 63 56 52
56 58 62 59 57 52 54 48 53 53 51 52 53 54 53 52 46 44 45 41 41 42 43 46 44 44 46 50 49 47 50 48 51 53 53 53 58 62 66 68 68 64 62 62 60
62 61 53 48 54 53 51 52 51 53 55 54 54 54 51 51 42 42 47 46 41 44 47 47 47 48 47 50 54 51 54 53 55 57 56 57 59 59 63 66 63 63 63 63 58
56 49 57 55 50 52 48 44 53 52 55 55 55 57 54 54 42 37 44 47 43 46 47 49 48 49 53 57 56 55 57 54 56 59 60 60 60 63 62 62 60 61 62 53 59
53 56 56 55 53 56 50 54 47 51 35 58 55 56 56 51 50 44 43 49 47 47 48 49 53 55 58 57 55 57 59 60 60 61 61 66 65 58 65 62 63 63 62 62 60
61 59 54 57 57 54 56 54 56 57 53 58 55 58 55 53 50 48 46 47 50 49 51 51 55 59 58 62 61 61 61 62 62 63 64 66 71 63 63 60 66 67 52 66 59
62 63 59 60 57 55 59 58 62 57 59 61 57 58 57 54 56 54 47 50 49 51 52 54 54 62 60 63 64 65 65 64 66 69 68 69 77 74 61 61 67 69 67 65 68
63 63 60 60 62 63 44 60 60 52 61 64 63 57 59 56 58 56 55 52 52 51 53 54 55 59 61 64 66 68 70 70 68 69 69 63 71 64 59 57 72 61 70 72 75
65 60 66 65 60 64 66 52 61 57 54 63 65 57 52 60 60 60 60 56 53 53 55 57 56 60 63 66 66 69 71 68 62 59 66 56 68 72 70 57 65 53 69 71 74
66 67 68 65 57 58 66 61 64 62 57 66 62 66 65 62 56 60 62 59 56 55 56 58 62 62 66 66 66 69 72 72 66 70 65 69 62 74 45 49 70 68 65 73 72
70 70 59 52 67 71 64 62 60 58 65 67 62 69 66 66 68 58 66 68 65 64 64 65 66 67 68 64 67 69 75 78 74 73 61 69 66 74 70 70 72 71 67 75 75
71 72 74 74 52 68 63 67 73 73 70 68 69 65 63 70 70 71 67 72 66 73 72 68 68 69 66 69 67 66 76 80 79 73 69 74 72 73 73 72 74 75 72 72 75
71 70 72 74 76 73 76 74 77 64 66 60 73 74 75 75 74 75 76 72 72 77 78 76 76 72 70 75 72 69 63 36 28 80 79 77 78 75 76 74 78 80 78 79 83
Wind_Direction
241 245 247 264 262 258 266 280 275 286 313 292 297 310 313 325 314 324 319 324 325 324 322 326 326 328 329 331 336 341 339 338 342 342 346 337 342 333 334 336 331 327 329 330 327
237 235 251 259 255 260 268 264 278 278 303 289 313 304 303 315 315 321 325 323 324 322 319 324 322 328 330 326 336 339 335 339 332 338 342 338 336 333 339 335 332 330 333 331 336
243 237 245 254 256 273 266 273 271 279 285 316 298 320 304 306 312 321 320 320 321 323 317 320 319 328 329 330 334 335 336 335 330 337 340 341 339 344 336 335 330 335 335 338 339
238 238 253 241 251 280 266 266 268 275 281 293 312 300 306 315 311 317 319 321 320 320 314 315 317 327 327 327 329 329 327 333 331 333 335 340 335 340 337 336 338 334 336 342 338
246 251 242 252 252 279 273 296 266 275 308 290 299 303 315 307 313 315 316 316 315 310 310 311 319 323 323 323 328 327 323 329 335 334 336 337 338 342 335 334 341 338 338 341 338
258 251 231 254 253 251 276 261 267 287 279 299 301 303 302 306 307 312 313 315 310 305 306 310 315 319 319 319 323 319 323 326 331 325 332 338 341 339 338 336 340 339 338 339 339
252 249 263 276 274 282 292 273 287 300 278 302 302 299 306 309 307 309 305 307 310 300 303 306 310 317 317 319 319 314 319 317 322 329 334 334 337 336 337 338 338 338 338 340 338
258 239 262 273 257 287 282 272 298 294 295 290 297 297 305 302 302 301 309 309 299 300 300 305 308 317 315 316 315 324 317 322 323 330 333 333 332 335 336 340 339 337 336 336 337
256 261 274 269 274 284 284 258 291 281 286 288 289 297 298 301 298 303 301 307 298 297 300 305 306 314 318 327 323 309 327 320 324 327 330 333 334 334 335 340 338 336 336 336 334
242 246 267 248 280 259 256 268 269 286 297 282 289 294 295 297 302 300 302 298 296 295 298 303 304 309 311 312 307 313 316 317 320 325 329 331 334 334 334 341 335 333 333 332 328
263 271 263 275 276 274 284 265 286 292 292 294 291 291 285 299 298 303 304 294 292 294 297 300 300 309 308 308 306 312 313 316 319 324 325 328 329 330 330 329 331 331 331 327 323
265 251 253 256 261 261 284 276 281 283 289 288 291 282 289 297 295 299 301 290 289 293 296 297 298 306 306 310 309 313 311 313 315 318 321 323 325 327 325 326 327 331 327 327 322
242 267 258 263 271 279 282 286 279 284 274 286 285 287 287 287 296 295 297 287 285 290 293 295 298 299 305 306 307 306 309 309 312 314 315 320 320 318 324 315 323 330 330 329 325
257 260 264 268 270 266 281 280 280 283 278 278 277 279 283 289 293 295 291 284 284 287 291 295 296 297 304 303 307 308 308 309 308 311 312 314 318 319 320 325 327 332 329 325 333
256 258 261 261 264 271 277 276 264 275 278 277 278 280 285 294 290 292 286 282 282 285 289 292 295 297 300 303 304 307 308 310 309 314 315 318 320 322 322 327 329 325 326 331 332
248 253 256 253 256 270 268 255 268 271 271 273 278 283 283 289 285 274 279 281 280 285 287 291 294 296 298 300 302 305 306 310 311 316 316 318 320 324 324 325 323 323 327 326 328
248 250 260 244 265 257 264 261 272 275 271 278 283 282 290 285 279 273 271 279 279 282 284 289 293 295 295 297 300 306 306 307 308 312 313 318 320 320 317 320 319 322 322 324 331
242 237 256 259 251 259 267 270 270 260 271 268 274 276 280 284 281 279 274 277 279 278 284 289 290 291 296 296 298 303 304 304 308 313 315 316 315 316 317 318 318 319 321 322 328
251 248 256 256 260 253 265 265 258 272 297 266 277 277 279 288 285 275 275 270 274 280 283 283 286 292 294 300 304 303 300 304 305 308 314 312 313 317 314 315 317 320 322 321 325
247 251 256 253 258 262 259 266 270 264 265 272 271 273 276 281 289 290 279 277 274 280 282 286 285 288 289 293 298 297 302 303 307 309 309 312 309 315 315 320 319 320 322 323 323
245 246 244 253 257 261 262 262 257 265 267 270 270 277 278 279 284 286 285 283 279 278 280 281 284 280 288 293 295 295 299 304 305 303 307 308 311 310 315 319 316 320 322 322 324
248 249 253 255 250 254 266 256 258 275 265 267 270 277 275 281 284 284 283 287 285 283 281 282 283 286 284 286 289 291 295 297 299 301 303 308 303 316 315 317 315 317 318 319 320
245 257 252 251 261 259 257 271 266 260 274 269 270 282 279 276 281 281 283 286 287 284 284 288 285 283 285 287 290 292 294 297 302 302 303 307 302 307 306 316 312 320 316 317 318
248 251 250 255 262 264 258 268 265 271 264 260 281 274 272 275 282 283 282 281 287 289 285 282 284 290 288 290 294 294 294 296 297 296 302 302 305 303 308 317 311 311 311 314 313
246 254 263 268 260 255 261 271 270 274 270 266 276 272 274 278 275 279 282 282 281 284 289 289 285 286 289 294 294 294 295 294 296 297 299 299 305 299 306 308 308 308 311 312 313
257 257 257 260 263 268 269 271 268 268 268 272 263 280 282 274 278 279 282 280 285 284 284 282 283 287 285 286 287 292 289 289 296 298 298 298 299 299 303 305 303 305 309 315 314
252 260 260 259 262 264 264 269 266 270 269 278 272 263 264 269 272 271 274 281 280 279 280 281 282 285 285 285 290 291 298 336 332 292 297 297 296 302 303 303 303 304 307 308 307